[[{"header":{"parameterUnit":"m.s-1","parameterCategory":1,"la1":30.2991,"la2":30.254,"lo1":-89.0895,"lo2":-89.0444,"dy":0.0017,"dx":0.0017,"nx":28,"ny":28,"refTime":"2025-09-02T03:00:00:Z","depth":0,"parameterNumber":2,"parameterNumberName":"U-component_of_WINDS"},"data":[0,0,0,0,0,0,0,0,0,0,0,0,0,0,0,0,0,0,0,0,0,0,0,0,0,0,0,0,0,0,0,0,0,0,0,0,0,0,0,0,0,0,0,0,0,0,0,0,0,0,0,0,0,0,0,0,0,0,-3.507,-3.507,0,-3.5064,-3.5064,-3.5064,-3.4922,-3.4919,-3.4915,-3.4912,-3.4906,-3.4909,-3.4912,0,0,0,0,0,0,0,0,0,0,0,0,0,-3.4957,-3.496,-3.507,-3.507,-3.507,-3.5064,-3.5064,-3.5064,-3.4923,-3.4918,-3.4914,-3.491,-3.4905,-3.4909,-3.4913,0,0,0,0,0,0,0,0,0,0,0,0,0,-3.4985,-3.4961,-3.507,-3.4999,-3.4992,-3.5064,-3.5064,-3.5064,-3.4924,-3.4918,-3.4913,-3.4908,-3.4904,-3.4908,-3.4913,-3.5053,0,0,-3.4928,-3.493,0,0,0,0,0,0,0,0,-3.4983,-3.4989,-3.5009,-3.5004,-3.4996,-3.4988,-3.5022,-3.506,-3.4925,-3.495,-3.4911,-3.4905,-3.4938,-3.494,-3.495,-3.5053,-3.5052,-3.4928,-3.4931,-3.4934,-3.4935,0,0,0,0,0,0,0,-3.4982,-3.4988,-3.5067,-3.501,-3.5002,-3.4967,-3.4964,-3.5029,-3.4975,-3.4947,-3.4937,-3.4938,-3.4933,-3.4946,-3.4949,-3.5052,-3.4928,-3.4933,-3.4936,-3.4938,-3.5268,-3.5273,0,0,0,0,0,0,-3.499,-3.4988,-3.5068,-3.5067,-3.4976,-3.4973,-3.4971,-3.4997,-3.4973,-3.4965,-3.4943,-3.4932,-3.494,-3.4944,-3.4949,-3.5109,-3.4934,-3.4938,-3.4941,-3.5262,-3.5269,-3.5275,0,0,0,0,0,0,-3.4988,-3.4998,-3.5068,-3.5025,-3.5031,-3.4981,-3.5011,-3.4999,-3.5012,-3.497,-3.496,-3.4966,-3.4936,-3.4942,-3.5028,-3.5107,-3.494,-3.4945,-3.5255,-3.5264,-3.5272,-3.5433,0,0,0,0,0,0,-3.4985,-3.4998,-3.5051,-3.5027,-3.5034,-3.5148,-3.5016,-3.5003,-3.5021,-3.5006,-3.4989,-3.4981,-3.4932,-3.5021,-3.5033,-3.5111,-3.4949,-3.5248,-3.5259,-3.5269,-3.542,-3.5446,-3.5468,0,0,0,0,0,-3.4982,-3.5097,-3.5054,-3.5065,-3.5099,-3.5153,-3.5156,-3.5098,-3.5028,-3.508,-3.5053,-3.4982,-3.5097,-3.5031,-3.5043,-3.5124,-3.5242,-3.5256,-3.5269,-3.541,-3.5441,-3.5468,0,0,0,0,0,0,-3.5131,-3.5092,-3.5045,-3.5156,-3.5159,-3.5129,-3.5192,-3.5133,-3.5156,-3.5141,-3.5068,-3.5065,-3.5163,-3.5152,-3.5079,-3.5257,-3.5157,-3.5173,-3.526,-3.529,-3.5314,-3.5313,-3.4953,0,0,0,0,0,-3.5177,-3.5224,-3.5188,-3.5289,-3.5293,-3.5243,-3.5264,-3.5219,-3.5219,-3.522,-3.5199,-3.5202,-3.5238,-3.5264,-3.5295,-3.5419,-3.5412,-3.548,-3.5504,-3.5524,-3.5538,-3.5601,-3.5631,-3.5319,-3.5318,-3.5318,0,0,-3.5272,-3.5257,-3.5291,-3.5319,-3.5316,-3.5365,-3.5245,-3.5303,-3.5339,-3.5228,-3.5307,-3.5293,-3.5291,-3.5397,-3.5442,-3.539,-3.5623,-3.5541,-3.5557,-3.556,-3.5618,-3.5648,-3.5674,-3.5327,-3.5326,-3.5324,0,0,-3.5471,-3.5465,-3.5548,-3.5547,-3.5544,-3.551,-3.553,-3.5509,-3.5495,-3.5574,-3.5491,-3.5534,-3.5599,-3.56,-3.561,-3.581,-3.5744,-3.5822,-3.5947,-3.6009,-3.6034,-3.6055,-3.6125,-3.6151,-3.5837,-3.5838,-3.5838,0,-3.5589,-3.5661,-3.5598,-3.5661,-3.5675,-3.5578,-3.5661,-3.5663,-3.5671,-3.5683,-3.5626,-3.5705,-3.5697,-3.58,-3.5849,-3.5861,-3.588,-3.5823,-3.6036,-3.6056,-3.6075,-3.6141,-3.6168,-3.5847,-3.5846,-3.5845,-3.5844,0,-3.5806,-3.5858,-3.5925,-3.5934,-3.5956,-3.603,-3.5977,-3.6007,-3.5961,-3.5933,-3.6014,-3.6001,-3.6028,-3.6049,-3.6005,-3.6147,-3.6115,-3.6048,-3.5946,-3.6115,-3.6176,-3.6201,-3.586,-3.5857,-3.5854,-3.5852,0,0,-3.6097,-3.6071,-3.6096,-3.6099,-3.6089,-3.6127,-3.6196,-3.6222,-3.6248,-3.6257,-3.6312,-3.637,-3.6308,-3.6319,-3.6274,-3.6329,-3.6486,-3.6255,-3.6253,-3.6297,-3.664,-3.6689,-3.6719,-3.6444,-3.6448,-3.6452,-3.664,0,-3.6287,-3.6402,-3.6347,-3.6469,-3.6515,-3.6423,-3.6483,-3.6483,-3.646,-3.6495,-3.6469,-3.651,-3.6426,-3.6432,-3.6483,-3.6457,-3.6554,-3.6442,-3.6493,-3.6496,-3.6494,-3.6751,-3.6803,-3.698,-3.6663,-3.6667,-3.667,0,-3.6523,-3.6542,-3.6668,-3.6649,-3.6666,-3.6721,-3.6739,-3.6775,-3.6773,-3.6752,-3.6765,-3.6707,-3.6773,-3.6673,-3.6762,-3.6688,-3.6706,-3.6697,-3.6702,-3.6702,-3.6592,-3.6757,-3.7036,-3.7062,-3.6707,-3.6704,-3.6701,0,-3.672,-3.6777,-3.6859,-3.6865,-3.6845,-3.6885,-3.6879,-3.6872,-3.6891,-3.6908,-3.6919,-3.6945,-3.6958,-3.6979,-3.6929,-3.6861,-3.7025,-3.6921,-3.7008,-3.7009,-3.7044,-3.7043,-3.7328,-3.706,-3.706,-3.706,-3.7059,0,-3.6937,-3.7017,-3.6947,-3.6998,-3.7085,-3.7021,-3.7109,-3.7093,-3.7088,-3.7133,-3.7057,-3.7101,-3.7034,-3.7072,-3.7034,-3.7113,-3.712,-3.7104,-3.7093,-3.711,-3.7112,-3.7119,-3.7104,-3.7067,-3.7065,-3.7064,-3.7062,0,-3.717,-3.7127,-3.721,-3.7185,-3.718,-3.7246,-3.7223,-3.7269,-3.724,-3.7299,-3.7309,-3.7265,-3.7305,-3.7258,-3.7295,-3.727,-3.7376,-3.7348,-3.7377,-3.7367,-3.7456,-3.7448,-3.7755,-3.7791,-3.7502,-3.7505,-3.7508,0,-3.731,-3.7369,-3.735,-3.7375,-3.7373,-3.7415,-3.7433,-3.7374,-3.7397,-3.74,-3.7445,-3.7479,-3.7503,-3.7572,-3.7543,-3.7571,-3.7541,-3.7647,-3.7545,-3.756,-3.754,-3.7537,-3.7542,-3.7667,-3.7671,-3.7673,-3.7676,0,-3.7562,-3.7538,-3.7568,-3.7591,-3.7616,-3.7631,-3.7641,-3.7666,-3.7604,-3.7633,-3.7674,-3.7693,-3.773,-3.7765,-3.7785,-3.7777,-3.7717,-3.7709,-3.773,-3.7747,-3.776,-3.7752,-3.7431,-3.7701,-3.7699,-3.7697,-3.7695,-3.7694,-3.7751,-3.7799,-3.7793,-3.7829,-3.783,-3.7841,-3.7882,-3.7859,-3.7892,-3.7917,-3.7881,-3.7931,-3.7928,-3.7948,-3.7948,-3.7987,-3.7941,-3.7973,-3.798,-3.7988,-3.8001,-3.7756,-3.799,-3.799,-3.7989,-3.7988,-3.7988,0,-3.7997,-3.7989,-3.8023,-3.8039,-3.8067,-3.8008,-3.8016,-3.8043,-3.8088,-3.809,-3.8116,-3.8162,-3.8195,-3.817,-3.8197,-3.8233,-3.8206,-3.8242,-3.8238,-3.8237,-3.8041,-3.8018,-3.8264,-3.8264,-3.8264,-3.8264,-3.8264,-3.8264,-3.8128,-3.8206,-3.8182,-3.8259,-3.825,-3.8298,-3.8308,-3.8317,-3.8318,-3.8374,-3.8401,-3.8384,-3.8375,-3.8401,-3.8429,-3.8421,-3.8434,-3.848,-3.8462,-3.8278,-3.8251,-3.8225,-3.8204,-3.8484,-3.8485,-3.8655,-3.8656,-3.8658]},{"header":{"parameterUnit":"m.s-1","parameterCategory":1,"la1":30.2991,"la2":30.254,"lo1":-89.0895,"lo2":-89.0444,"dy":0.0017,"dx":0.0017,"nx":28,"ny":28,"refTime":"2025-09-02T03:00:00:Z","depth":0,"parameterNumber":3,"parameterNumberName":"V-component_of_WINDS"},"data":[0,0,0,0,0,0,0,0,0,0,0,0,0,0,0,0,0,0,0,0,0,0,0,0,0,0,0,0,0,0,0,0,0,0,0,0,0,0,0,0,0,0,0,0,0,0,0,0,0,0,0,0,0,0,0,0,0,0,-0.0776,-0.0777,0,-0.0839,-0.084,-0.084,-0.0896,-0.0897,-0.0897,-0.0898,-0.0965,-0.0966,-0.0967,0,0,0,0,0,0,0,0,0,0,0,0,0,-0.0706,-0.0707,-0.0776,-0.0777,-0.0778,-0.0839,-0.084,-0.0841,-0.0896,-0.0897,-0.0898,-0.0898,-0.0964,-0.0966,-0.0967,0,0,0,0,0,0,0,0,0,0,0,0,0,-0.0749,-0.0707,-0.0776,-0.0813,-0.0817,-0.0839,-0.084,-0.0841,-0.0896,-0.0897,-0.0898,-0.0899,-0.0964,-0.0965,-0.0967,-0.0959,0,0,-0.0973,-0.0973,0,0,0,0,0,0,0,0,-0.0747,-0.0752,-0.0806,-0.081,-0.0815,-0.0861,-0.0839,-0.088,-0.0896,-0.0866,-0.0898,-0.0899,-0.0929,-0.0934,-0.0944,-0.0962,-0.0965,-0.0973,-0.0974,-0.0975,-0.0975,0,0,0,0,0,0,0,-0.0743,-0.0749,-0.0801,-0.0807,-0.0812,-0.0826,-0.0834,-0.0847,-0.0892,-0.0868,-0.0873,-0.0879,-0.0932,-0.0942,-0.0946,-0.0966,-0.0973,-0.0974,-0.0975,-0.0976,-0.0979,-0.0978,0,0,0,0,0,0,-0.0735,-0.0746,-0.0799,-0.0803,-0.0782,-0.0827,-0.0835,-0.0845,-0.0891,-0.0899,-0.0878,-0.0882,-0.0938,-0.0944,-0.0948,-0.0941,-0.0975,-0.0976,-0.0977,-0.098,-0.0979,-0.0977,0,0,0,0,0,0,-0.0733,-0.0739,-0.0797,-0.0776,-0.0784,-0.0827,-0.0838,-0.0846,-0.0856,-0.0899,-0.0907,-0.088,-0.0939,-0.0946,-0.0955,-0.0944,-0.0977,-0.0979,-0.0981,-0.0979,-0.0978,-0.0926,0,0,0,0,0,0,-0.0731,-0.0738,-0.0735,-0.0775,-0.0785,-0.0802,-0.0837,-0.0846,-0.0858,-0.0863,-0.0903,-0.0911,-0.0941,-0.0952,-0.0957,-0.0947,-0.098,-0.0982,-0.098,-0.0978,-0.0929,-0.0923,-0.0917,0,0,0,0,0,-0.0728,-0.0718,-0.0734,-0.074,-0.0782,-0.0801,-0.0807,-0.0841,-0.0857,-0.0855,-0.0882,-0.0909,-0.0944,-0.0953,-0.0959,-0.0949,-0.0983,-0.0981,-0.0979,-0.0931,-0.0924,-0.0917,0,0,0,0,0,0,-0.0677,-0.0724,-0.0743,-0.0746,-0.0769,-0.0811,-0.0809,-0.0832,-0.0852,-0.0856,-0.0898,-0.0906,-0.0911,-0.0931,-0.094,-0.0942,-0.0967,-0.0966,-0.0929,-0.0922,-0.0917,-0.0912,-0.0981,0,0,0,0,0,-0.0666,-0.0677,-0.0718,-0.0717,-0.0727,-0.0765,-0.0775,-0.0799,-0.0825,-0.0835,-0.0864,-0.0888,-0.0905,-0.0915,-0.0932,-0.0932,-0.0941,-0.0928,-0.0922,-0.0917,-0.0916,-0.0916,-0.091,-0.097,-0.097,-0.097,0,0,-0.0644,-0.0671,-0.0675,-0.0707,-0.0728,-0.0738,-0.0774,-0.0784,-0.0792,-0.0837,-0.0847,-0.0869,-0.0899,-0.0903,-0.0906,-0.092,-0.0901,-0.0914,-0.091,-0.0911,-0.0913,-0.0907,-0.0902,-0.0969,-0.0969,-0.0969,0,0,-0.0608,-0.063,-0.0631,-0.065,-0.068,-0.0706,-0.0706,-0.0743,-0.0759,-0.0769,-0.0803,-0.0814,-0.0842,-0.0861,-0.0875,-0.0845,-0.087,-0.0849,-0.082,-0.082,-0.0815,-0.0811,-0.0799,-0.0795,-0.0848,-0.0847,-0.0847,0,-0.0577,-0.0594,-0.0629,-0.0636,-0.0649,-0.0689,-0.069,-0.0707,-0.0742,-0.075,-0.0764,-0.0799,-0.0822,-0.083,-0.0823,-0.0833,-0.0834,-0.0845,-0.0813,-0.0809,-0.0806,-0.0795,-0.0791,-0.0845,-0.0845,-0.0845,-0.0846,0,-0.0553,-0.0564,-0.0561,-0.0592,-0.0604,-0.0609,-0.0644,-0.0653,-0.0675,-0.0699,-0.0709,-0.0737,-0.0761,-0.0765,-0.0788,-0.0776,-0.0784,-0.0805,-0.0831,-0.0797,-0.0787,-0.0784,-0.0841,-0.0842,-0.0843,-0.0843,0,0,-0.0489,-0.0537,-0.0536,-0.055,-0.0585,-0.0594,-0.06,-0.0622,-0.0628,-0.065,-0.0656,-0.0677,-0.0696,-0.0712,-0.0737,-0.0736,-0.0709,-0.0758,-0.0759,-0.0747,-0.0698,-0.0681,-0.0676,-0.0726,-0.0726,-0.0725,-0.0695,0,-0.0459,-0.0471,-0.0501,-0.0504,-0.0514,-0.0551,-0.0556,-0.0578,-0.06,-0.0612,-0.0637,-0.0651,-0.0675,-0.0685,-0.0686,-0.0712,-0.07,-0.0715,-0.0732,-0.0732,-0.0723,-0.0672,-0.0655,-0.0625,-0.0692,-0.0691,-0.0691,0,-0.0426,-0.0444,-0.0447,-0.048,-0.0486,-0.0489,-0.0511,-0.0522,-0.0548,-0.0564,-0.0579,-0.0607,-0.0615,-0.0638,-0.0649,-0.0659,-0.0668,-0.0681,-0.0681,-0.0684,-0.0709,-0.0673,-0.0617,-0.0612,-0.0686,-0.0686,-0.0687,0,-0.0378,-0.0403,-0.0408,-0.0419,-0.0458,-0.0459,-0.0476,-0.0502,-0.0513,-0.0532,-0.0539,-0.0559,-0.057,-0.0585,-0.0617,-0.0631,-0.0625,-0.0651,-0.0638,-0.0637,-0.0636,-0.0635,-0.0579,-0.0641,-0.0641,-0.0641,-0.0641,0,-0.0341,-0.0341,-0.0386,-0.0389,-0.039,-0.0425,-0.0426,-0.0446,-0.0469,-0.0476,-0.051,-0.0517,-0.0558,-0.0569,-0.0594,-0.0599,-0.0604,-0.0617,-0.0624,-0.0614,-0.0613,-0.0621,-0.0624,-0.064,-0.064,-0.064,-0.0641,0,-0.0288,-0.0318,-0.0325,-0.0361,-0.037,-0.0369,-0.04,-0.0404,-0.0427,-0.0436,-0.0441,-0.0477,-0.0492,-0.0525,-0.0549,-0.0566,-0.0564,-0.0577,-0.0555,-0.0559,-0.0544,-0.0545,-0.0492,-0.0487,-0.0551,-0.0551,-0.055,0,-0.0263,-0.0263,-0.0298,-0.0305,-0.032,-0.0331,-0.0341,-0.0376,-0.0385,-0.0414,-0.0414,-0.0431,-0.0447,-0.0469,-0.0498,-0.0516,-0.0529,-0.0509,-0.0532,-0.0522,-0.0528,-0.0527,-0.0527,-0.0504,-0.0503,-0.0502,-0.0502,0,-0.0214,-0.0228,-0.0242,-0.026,-0.0271,-0.0287,-0.0305,-0.0309,-0.0348,-0.0357,-0.0372,-0.0383,-0.0407,-0.0423,-0.0446,-0.0463,-0.0489,-0.0494,-0.0492,-0.0482,-0.0469,-0.0475,-0.0541,-0.0495,-0.0496,-0.0496,-0.0497,-0.0497,-0.0174,-0.0176,-0.02,-0.0214,-0.023,-0.0246,-0.0251,-0.0274,-0.0287,-0.0308,-0.0328,-0.034,-0.0365,-0.0397,-0.0413,-0.0423,-0.0436,-0.0433,-0.0433,-0.0431,-0.0427,-0.0467,-0.0428,-0.0428,-0.0428,-0.0428,-0.0429,0,-0.0127,-0.0144,-0.0156,-0.0179,-0.0189,-0.0211,-0.0232,-0.0239,-0.0249,-0.027,-0.0284,-0.03,-0.0316,-0.0345,-0.0363,-0.0366,-0.0378,-0.037,-0.037,-0.0373,-0.0415,-0.0414,-0.036,-0.036,-0.036,-0.036,-0.036,-0.036,-0.0103,-0.0107,-0.0124,-0.0136,-0.0154,-0.0166,-0.0175,-0.019,-0.0206,-0.0222,-0.0235,-0.0254,-0.0278,-0.0298,-0.0313,-0.0321,-0.0326,-0.0314,-0.0326,-0.0364,-0.0371,-0.0377,-0.0377,-0.0315,-0.0315,-0.0284,-0.0284,-0.0284]}]]